Printer-friendly version

IAU Minor Planet Center

Minor Planet Center

MPEC 2003-V30 : 2001 HW15

The following Minor Planet Electronic Circular may be linked-to from your own Web pages, but must not otherwise be redistributed electronically.


Read MPEC 2003-V29 Read MPEC 2003-V31


M.P.E.C. 2003-V30                                Issued 2003 Nov. 6, 22:06 UT

     The Minor Planet Electronic Circulars contain information on unusual
         minor planets and routine data on comets.  They are published
   on behalf of Commission 20 of the International Astronomical Union by the
          Minor Planet Center, Smithsonian Astrophysical Observatory,
                          Cambridge, MA 02138, U.S.A.

         Supported in part by the Steven and Michele Kirsch Foundation
             Prepared using the Tamkin Foundation Computer Network

                              MPC@CFA.HARVARD.EDU
          URL http://cfa-www.harvard.edu/iau/mpc.html  ISSN 1523-6714

                                   2001 HW15

                           Revision to MPEC 2001-H36

Additional Observations:
     K01H15W 2C2003 10 29.39313000 28 41.770-24 08 35.58         21.7 R      568
     K01H15W 2C2003 10 29.39647800 28 41.533-24 08 31.14         21.8 R      568
     K01H15W 2C2003 10 30.23869700 27 47.153-23 49 36.54         21.5 R      568
     K01H15W 2C2003 10 30.24201500 27 46.938-23 49 32.17         21.6 R      568

Observer details:
568 Mauna Kea.  Observer F. Bernardi.  Measurers F. Bernardi, D. J. Tholen.
    2.2-m University of Hawaii reflector + CCD.

Orbital elements:
2001 HW15
Epoch 2003 Dec. 27.0 TT = JDT 2453000.5                 MPC
M 130.44529              (2000.0)            P               Q
n   0.52315800     Peri.  194.71893     -0.33224622     +0.90324975
a   1.5253897      Node    56.57544     -0.82914575     -0.14245671
e   0.2529097      Incl.   18.98917     -0.44958846     -0.40477893
P   1.88           H   20.2           G   0.15           U   2
Residuals in seconds of arc
010418 608  0.5+  0.5+    010503 926  0.5+  0.9+    010513 739  1.8+  0.1+
010418 608  0.0   1.1+    010503 926  0.3+  0.7+    010513 402  0.3-  0.9+
010424 699  0.2-  0.6+    010503 926  0.1-  0.9+    010513 402  0.4+  0.3-
010424 699  0.1+  0.4+    010503 658  0.6+  0.2-    010513 402  0.3-  0.5-
010424 699  0.5+  0.1+    010503 658  0.3+  1.2+    010516 118  0.1-  0.5-
010424 699  0.2-  0.0     010503 658  0.2+  0.9+    010516 118  0.4+  0.2+
010424 557  0.2+  0.1+    010504 118  1.2+  0.3+    010516 118  0.5+  0.3+
010424 557  0.1-  0.2+    010504 118  1.1+  0.3+    010517 704  0.6-  0.2-
010424 557  0.2-  0.3+    010504 118  0.9+  0.5+    010517 704  0.0   0.1+
010424 046  0.1+  0.1-    010509 649  0.7-  1.5+    010517 704  0.2+  0.2+
010424 046  0.2+  0.3+    010509 649  1.2-  1.0-    010517 704  0.5+  0.1+
010424 046  0.2+  0.4+    010509 649  0.8-  0.4-    010517 704  0.3+  0.0
010424 046  0.0   0.3+    010510 046  0.1+  0.7+    010520 808  0.2+  1.1+
010425 649  0.0   0.2+    010510 046  0.0   0.2+    010520 808  0.2-  0.4+
010425 649  0.1+  0.4+    010510 046  0.0   0.6+    010520 704  0.1-  0.1+
010425 649  0.2+  0.3+    010510 046  0.2-  0.3+    010520 704  0.4+  0.9-
010425 926  0.1-  0.4+    010510 151  0.1-  0.3-    010520 704  0.3+  0.7-
010425 926  0.3+  0.5+    010510 151  0.5+  0.2+    010520 704  0.4+  0.5-
010425 926  0.2-  0.6+    010510 151  0.3+  0.0     010521 704  0.5-  0.8+
010425 926  0.2+  1.1+    010510 151  0.1+  0.3-    010521 704  0.1-  0.0
010425 926  0.4-  1.3+    010510 151  0.0   0.0     010521 704  0.1-  0.0
010425 919  1.4-  0.2+    010510 151  0.2+  0.2+    010521 704  0.1-  0.2-
010425 919  0.1-  0.3+    010510 118  0.1-  0.0     010521 704  0.8-  0.3-
010425 919  0.3-  0.3-    010510 118  0.3-  0.5+    010531 413  0.3-  0.3+
010426 682  0.6-  0.4+    010510 118  0.1-  0.1+    010531 413  0.3-  0.1+
010426 682  0.9+  0.1-    010511 151  0.0   0.5+    010531 413  0.1-  0.3-
010427 118  0.1-  0.8+    010511 151  0.4+  0.4+    010601 413  0.2-  0.1-
010427 118  0.2+  0.8+    010511 151  0.1+  0.6+    010601 413  0.1-  0.1+
010427 118  0.5+  0.6+    010511 151  0.2-  0.1-    010601 413  0.3+  0.2-
010427 608 (1.5-  7.7-)   010511 151  0.4+  0.7+    010602 413  0.0   0.0
010427 608 (2.1-  8.4-)   010511 151  0.1+  0.4+    010602 413  0.2-  0.3-
010427 608 (2.0-  8.6-)   010511 151  0.1+  0.4+    010602 413  0.2-  0.2-
010429 540  0.9-  0.6-    010512 342  1.0-  2.8-    010603 413  0.5-  0.2-
010429 540  0.8-  0.4-    010512 342 (1.3-  4.1-)   010603 413  0.2-  0.2+
010430 046  0.9+  0.3+    010512 342  0.6-  2.7-    010603 413  0.0   0.3-
010430 046  0.5+  0.5+    010512 360  0.0   0.6+    010703 413  0.3+  0.3+
010430 046  0.3+  0.8+    010512 360  0.1+  0.3+    010703 413  0.4-  0.1+
010430 046  0.2-  0.6+    010512 360  0.1+  0.6+    010703 413  0.0   0.1-
010430 046  0.2+  0.3+    010512 113  0.6+  0.8+    010704 413  0.1+  0.1-
010501 682  0.4-  0.3+    010512 113  0.2+  0.4+    010704 413  0.4-  0.1+
010501 682  0.9+  0.4-    010512 113  0.5+  0.5+    010704 413  0.2-  0.7-
010502 118  0.6+  0.9+    010512 113  0.4+  0.4+    010911 474  0.6-  0.3+
010502 118  0.2+  0.8+    010512 113  0.7+  0.3+    010911 474  0.5-  0.3+
010502 658  0.2+  0.5+    010512 113  0.5+  0.1+    010911 474  0.5-  0.6-
010502 658  0.2-  0.4+    010512 113  0.9+  0.2+    010911 474  0.4-  0.5+
010502 658  0.2+  0.7+    010513 118  0.3-  0.2+    031029 568  0.3-  0.2+
010502 649  0.2+  0.4+    010513 118  0.4-  0.3+    031029 568  0.3-  0.2+
010502 649  0.2+  0.8+    010513 118  0.1-  0.6+    031030 568  0.0   0.2+
010502 649  0.1-  0.9+    010513 739  1.9-  0.3+    031030 568  0.1+  0.1+
010502 649  0.0   0.2+    010513 739  0.2+  0.5-

Ephemeris:
2001 HW15                a,e,i = 1.53, 0.25, 19                  q = 1.1396
Date    TT    R. A. (2000) Decl.     Delta      r     Elong.  Phase     V
2003 11 07    00 21.25   -20 51.8    0.896    1.702   128.7    27.1    22.3
2003 11 17    00 17.53   -17 01.0    0.995    1.729   121.2    29.3    22.7
2003 11 27    00 18.27   -13 16.1    1.106    1.754   113.8    31.0    23.0

Timothy B. Spahr             (C) Copyright 2003 MPC           M.P.E.C. 2003-V30

Read MPEC 2003-V29 Read MPEC 2003-V31


Our Web policy. Index to the CBAT/MPC/ICQ pages.


Valid HTML 4.01!